Location: Newark
(48.9000°N, 0.7000°E)
Time: 20:25:33
(UTC+00:00)

ISS - Pass Details

Date: 02 October 2020
Orbit: 418 x 420 km, 51.6° (Epoch: 20 October)

Event Time Altitude Azimuth Distance (km) Brightness Sun altitude
Rises 19:53:38 0° 288° (WNW) 2,369 1.5 -23.5°
Reaches altitude 10° 19:55:55 10° 276° (W) 1,502 0.0 -23.8°
Enters shadow 19:58:07 25° 239° (WSW) 897 -1.8 -24.2°
